Austin, TX

5:37 PM CST on February 12, 2016 (GMT -0600)
Austin Bergstrom International

Weather History for KAUS - December, 2012

Change the Weather History Date:

Tuesday, December 25, 2012

  Actual Average Record
Temperature  
Mean Temperature 51 °F 49 °F  
Max Temperature 69 °F 63 °F 91 °F (1955)
Min Temperature 33 °F 36 °F 11 °F (1983)
Degree Days  
Heating Degree Days 14 16  
Month to date heating degree days 215 366  
Since 1 July heating degree days 469 651  
Cooling Degree Days 0 0  
Month to date cooling degree days 44 5  
Year to date cooling degree days 3170 2746  
Moisture  
Dew Point 33 °F    
Average Humidity 49    
Maximum Humidity 72    
Minimum Humidity 26    
Precipitation  
Precipitation T in 0.07 in 1.10 in (2000)
Month to date precipitation 0.46 1.76  
Year to date precipitation 34.76 34.19  
Snow  
Snow 0.00 in - - ()
Month to date snowfall 0.0  
Since 1 July snowfall 0.0  
Snow Depth 0.00 in    
Sea Level Pressure  
Sea Level Pressure 29.79 in    
Wind  
Wind Speed 13 mph (NW)    
Max Wind Speed 28 mph    
Max Gust Speed 43 mph    
Visibility 10 miles    
Events Rain    
T = Trace of Precipitation, MM = Missing Value Source: NWS Daily Summary

Daily Weather History Graph

Daily Weather History Graph

Search for Another Location

Airport or City:

Trip Planner

Search our weather history database for the weather conditions in past years. The results will help you decide how hot, cold, wet, or windy it might be!

Date:

Astronomy

Dec. 25, 2012 Rise Set
Actual Time 7:24 AM CST 5:37 PM CST
Civil Twilight 6:58 AM CST 6:03 PM CST
Nautical Twilight 6:28 AM CST 6:33 PM CST
Astronomical Twilight 5:59 AM CST 7:03 PM CST
Moon 3:43 PM CST (12/25) 5:01 AM CST (12/25)
Length of Visible Light 11h 05m
Length of Day
10h 12m
Waxing Gibbous, 94% of the Moon is Illuminated
Dec 25
Waxing Gibbous
Dec 28
Full
Jan 4
Last Quarter
Jan 11
New
Jan 18
First Quarter

Hourly Weather History & Observations

Time (CST) Temp. Windchill Dew Point Humidity Pressure Visibility Wind Dir Wind Speed Gust Speed Precip Events Conditions
12:42 AM 57.2 °F - 32.0 °F 38% 29.72 in 10.0 mi ENE 3.5 mph - N/A   Overcast
12:53 AM 57.0 °F - 32.0 °F 39% 29.70 in 10.0 mi ENE 3.5 mph - N/A   Overcast
1:53 AM 57.0 °F - 34.0 °F 42% 29.68 in 10.0 mi NNE 5.8 mph - N/A   Overcast
2:53 AM 57.0 °F - 35.1 °F 44% 29.67 in 10.0 mi NNE 3.5 mph - N/A   Overcast
3:28 AM 57.2 °F - 35.6 °F 44% 29.66 in 10.0 mi Calm Calm - N/A   Overcast
3:53 AM 55.9 °F - 36.0 °F 47% 29.62 in 10.0 mi ENE 4.6 mph - N/A   Overcast
4:28 AM 55.4 °F - 35.6 °F 47% 29.61 in 10.0 mi SSE 3.5 mph - 0.00 in Rain Light Rain
4:51 AM 57.2 °F - 35.6 °F 44% 29.60 in 10.0 mi SSE 3.5 mph - 0.00 in   Overcast
4:53 AM 57.0 °F - 36.0 °F 45% 29.59 in 10.0 mi Calm Calm - 0.00 in   Overcast
5:43 AM 57.2 °F - 37.4 °F 48% 29.58 in 9.0 mi Calm Calm - N/A   Overcast
5:53 AM 57.0 °F - 37.0 °F 47% 29.57 in 9.0 mi Calm Calm - N/A   Overcast
6:53 AM 57.0 °F - 39.0 °F 51% 29.56 in 10.0 mi SSW 3.5 mph - N/A   Overcast
7:25 AM 57.2 °F - 46.4 °F 67% 29.57 in 10.0 mi South 8.1 mph - N/A   Scattered Clouds
7:53 AM 62.1 °F - 54.0 °F 75% 29.59 in 10.0 mi SSW 12.7 mph - N/A   Scattered Clouds
8:53 AM 69.1 °F - 57.9 °F 68% 29.62 in 6.0 mi West 11.5 mph 21.9 mph N/A   Haze
9:18 AM 64.4 °F - 50.0 °F 59% 29.69 in 10.0 mi NW 13.8 mph 25.3 mph N/A   Scattered Clouds
9:53 AM 64.0 °F - 46.9 °F 54% 29.72 in 10.0 mi NNW 13.8 mph 21.9 mph N/A   Partly Cloudy
10:53 AM 66.9 °F - 45.0 °F 45% 29.75 in 10.0 mi NW 15.0 mph 23.0 mph N/A   Partly Cloudy
11:53 AM 66.9 °F - 37.9 °F 34% 29.75 in 10.0 mi NW 19.6 mph 31.1 mph N/A   Partly Cloudy
12:53 PM 66.9 °F - 30.9 °F 26% 29.75 in 10.0 mi NW 19.6 mph 35.7 mph N/A   Partly Cloudy
1:53 PM 64.4 °F - 30.2 °F 28% 29.77 in 10.0 mi WNW 17.3 mph 32.2 mph N/A   Partly Cloudy
2:53 PM 59.0 °F - 30.0 °F 33% 29.81 in 10.0 mi WNW 25.3 mph 39.1 mph N/A   Partly Cloudy
3:53 PM 48.0 °F - 27.0 °F 44% 29.92 in 9.0 mi NW 21.9 mph 32.2 mph N/A   Partly Cloudy
4:53 PM 43.0 °F 35.4 °F 24.1 °F 47% 29.97 in 10.0 mi NNW 16.1 mph 29.9 mph N/A   Partly Cloudy
5:53 PM 37.9 °F 27.6 °F 23.0 °F 55% 30.02 in 10.0 mi NW 20.7 mph 35.7 mph N/A   Partly Cloudy
6:53 PM 36.0 °F 26.3 °F 21.9 °F 57% 30.06 in 10.0 mi NNW 16.1 mph 26.5 mph N/A   Mostly Cloudy
7:53 PM 35.1 °F 23.8 °F 19.9 °F 54% 30.10 in 10.0 mi NW 20.7 mph 31.1 mph N/A   Mostly Cloudy
8:53 PM 35.1 °F 25.2 °F 19.9 °F 54% 30.12 in 10.0 mi NNW 16.1 mph 27.6 mph N/A   Overcast
9:53 PM 34.0 °F 22.7 °F 18.0 °F 52% 30.14 in 10.0 mi NNW 19.6 mph 28.8 mph N/A   Overcast
10:53 PM 33.1 °F 22.2 °F 18.0 °F 54% 30.15 in 10.0 mi NNW 17.3 mph 29.9 mph N/A   Mostly Cloudy
11:53 PM 33.1 °F 21.9 °F 18.0 °F 54% 30.17 in 10.0 mi NNW 18.4 mph 28.8 mph N/A   Overcast